247  
ASUS41 KALY 090210  
RWRALY  
 
NEW YORK STATE HOURLY WEATHER ROUNDUP  
NATIONAL WEATHER SERVICE ALBANY NY  
900 PM EST THU DEC 08 2022  
 
NOTE: "FAIR" INDICATES FEW OR NO CLOUDS BELOW 12,000 FEET WITH NO  
SIGNIFICANT WEATHER AND/OR NO S TO VISIBILITY
.  
 
NYZ032-033-038>043-046>054-057>066-NYZ062>081-082-084-090300-  
EAST  
 
 
CITY SKY/WX TMP DP RH WIND PRES REMARKS
 
ALBANY CLEAR 35 27 72 NW6 30.31R WCI 30  
GLENS FALLS CLEAR 32 27 81 CALM 30.31S  
POUGHKEEPSIE CLEAR 39 30 70 N8 30.25S WCI 33  
NEWBURGH PTCLDY 39 32 75 CALM 30.24F  
MONTGOMERY CLEAR 37 31 78 NW7 30.24F WCI 32  
WHITE PLAINS PTCLDY 41 30 65 N9 30.23R  
ISLIP MOCLDY 46 33 60 N12 30.22R  
NEW YORK CITY MOCLDY 46 32 58 N15 30.24R  
CENTRAL PARK MOCLDY 46 32 58 N7 30.26S  

 
 
NYZ005>009-017-018-044>046-055-056-090300-  
CENTRAL  
 
 
CITY SKY/WX TMP DP RH WIND PRES REMARKS
 
SYRACUSE CLOUDY 38 35 89 NW3 30.35R  
ROME CLEAR 33 28 81 CALM 30.35R  
ELMIRA CLOUDY 39 30 70 NE7 30.32S WCI 34  
BINGHAMTON CLOUDY 34 29 82 N9 30.28R WCI 27  
MONTICELLO PTCLDY 34 31 88 NW6 30.25S WCI 29  

 
 
NYZ026>034-041>043-087-090300-  
NORTH  
 
 
CITY SKY/WX TMP DP RH WIND PRES REMARKS
 
WATERTOWN CLOUDY 35 29 78 N7 30.38R WCI 29  
FORT DRUM NOT AVBL  
OGDENSBURG CLOUDY 32 28 86 N7 30.37R WCI 26  
MASSENA CLEAR 28 26 92 NW7 30.39R WCI 21  
SARANAC LAKE CLOUDY 30 24 78 VRB3 30.28R  
PLATTSBURGH CLOUDY 32 27 81 NW3 30.34R  

 
 
NYZ001>004-010>016-019>021-085-090300-  
WEST  
 
 
CITY SKY/WX TMP DP RH WIND PRES REMARKS
 
NIAGARA FALLS CLEAR 34 28 79 N12 30.37F WCI 25  
BUFFALO MOCLDY 34 29 82 NE8 30.37S WCI 27  
DUNKIRK CLOUDY 39 31 72 NE10 30.36S WCI 32  
JAMESTOWN CLOUDY 34 30 85 CALM 30.30F  
WELLSVILLE CLOUDY 35 29 78 CALM 30.29F  
ROCHESTER CLEAR 31 28 89 W3 30.37F  
PENN YAN MOCLDY 33 29 85 CALM 30.34S  

 
 
KEY  
WCI = WIND CHILL INDEX  
VSB = VISIBILITY  
HX = HEAT INDEX  

 
 
 
CLICK HERE TO GO TO PREVIOUS BULLETINS.

The Nexlab NY Page
The Nexlab VT Page
The Nexlab MA Page
The Nexlab CT Page Main Text Page